Total_Precipitation_Accumulation
0.04 0.04 0.05 0.06 0.07 0.09 0.10 0.12 0.19 0.24 0.26 0.32 0.45 0.66 0.87 0.93 1.10 1.18 1.35 1.42 1.71 1.86 2.00 2.32 2.79 3.22 3.66 3.71 3.80 3.76 3.86 4.10 4.28 4.43 4.38 4.51 4.48 4.43 4.63 4.82 4.82 4.91 4.98 4.81
0.04 0.04 0.03 0.03 0.04 0.08 0.11 0.13 0.24 0.35 0.37 0.42 0.53 0.72 0.93 1.06 1.05 1.29 1.56 1.63 2.12 2.25 2.19 2.36 2.86 3.26 3.64 3.85 3.94 4.08 4.19 4.19 4.34 4.80 5.20 5.49 5.75 5.77 5.68 5.77 5.82 5.64 5.50 5.41
0.04 0.04 0.03 0.04 0.05 0.09 0.14 0.17 0.27 0.43 0.42 0.52 0.67 1.07 1.19 1.17 1.19 1.38 1.70 1.82 2.19 2.35 2.45 2.32 2.45 2.85 3.28 3.62 3.83 3.96 4.21 4.56 5.06 5.66 6.07 6.35 6.61 6.68 6.45 6.21 6.08 5.86 5.65 5.51
0.05 0.04 0.03 0.05 0.06 0.07 0.14 0.14 0.21 0.30 0.40 0.61 0.64 1.23 1.44 1.39 1.47 1.58 1.76 1.79 2.02 2.04 2.24 2.34 2.35 2.58 2.92 3.23 3.55 3.88 4.20 4.80 5.68 6.35 6.74 7.08 7.17 7.07 6.91 6.69 6.29 5.78 5.42 5.12
0.07 0.05 0.06 0.05 0.04 0.04 0.07 0.10 0.16 0.21 0.29 0.46 0.54 1.05 1.42 1.41 1.58 1.74 1.95 1.93 1.92 2.01 1.95 2.02 2.09 2.27 2.65 2.99 3.32 3.72 4.12 4.79 5.47 6.08 6.65 7.08 7.20 7.11 6.88 6.42 5.87 5.27 4.81 4.41
0.07 0.05 0.04 0.03 0.03 0.04 0.05 0.11 0.20 0.28 0.43 0.69 0.58 0.90 1.51 1.67 1.84 2.02 2.02 2.08 2.27 2.19 2.03 2.00 1.93 1.99 2.24 2.60 2.92 3.37 3.80 4.33 4.93 5.34 5.87 6.21 6.37 6.24 5.85 5.34 4.73 4.30 3.98 3.68
0.10 0.07 0.04 0.04 0.05 0.06 0.08 0.19 0.52 0.65 0.75 0.82 0.59 0.97 1.70 1.90 1.87 2.03 2.12 2.21 2.35 2.29 2.19 2.07 1.98 1.94 2.06 2.32 2.62 2.89 3.14 3.59 3.92 4.26 4.71 4.97 4.94 4.72 4.45 4.18 3.95 3.56 3.14 2.79
0.20 0.16 0.08 0.06 0.08 0.09 0.10 0.18 0.54 0.86 0.82 0.79 0.87 1.50 2.08 2.00 1.83 1.80 1.92 2.05 2.11 2.01 1.99 1.95 1.91 1.95 2.01 1.99 2.19 2.37 2.47 2.69 2.90 3.09 3.28 3.32 3.27 3.20 3.16 3.04 2.77 2.48 2.15 1.86
0.28 0.23 0.10 0.06 0.05 0.07 0.10 0.17 0.23 0.44 0.55 0.88 1.38 1.94 2.34 2.06 1.94 1.90 1.77 1.64 1.80 1.80 1.76 1.81 1.87 1.94 1.92 1.84 1.83 1.92 1.95 1.96 2.03 2.10 2.21 2.23 2.19 2.18 2.18 2.12 1.96 1.77 1.64 1.46
0.24 0.24 0.13 0.08 0.07 0.09 0.11 0.16 0.24 0.43 0.87 1.18 1.54 2.07 2.58 2.50 2.39 2.35 2.06 1.73 1.81 1.82 1.82 1.77 1.71 1.74 1.78 1.67 1.66 1.75 1.78 1.65 1.59 1.52 1.51 1.50 1.57 1.60 1.61 1.58 1.46 1.39 1.33 1.25
0.22 0.25 0.21 0.13 0.15 0.18 0.16 0.21 0.28 0.48 0.69 1.13 1.77 2.40 2.37 2.59 2.69 2.51 2.17 1.85 1.84 1.79 1.81 1.83 1.74 1.61 1.57 1.54 1.55 1.48 1.47 1.44 1.36 1.28 1.27 1.22 1.19 1.21 1.19 1.11 1.06 1.04 1.04 1.02
0.23 0.27 0.32 0.21 0.16 0.16 0.21 0.24 0.29 0.59 0.70 0.82 1.53 2.45 2.39 2.64 2.75 2.54 2.41 2.17 1.98 1.98 1.89 1.78 1.71 1.61 1.57 1.45 1.41 1.35 1.30 1.24 1.17 1.16 1.17 1.08 1.03 1.03 1.08 1.04 0.95 0.90 0.90 0.88
0.24 0.41 0.61 0.69 0.54 0.31 0.24 0.22 0.27 0.36 0.55 0.86 1.50 2.41 2.48 2.50 2.38 2.29 2.18 2.15 2.23 2.40 2.20 1.92 1.74 1.51 1.39 1.25 1.17 1.15 1.14 1.10 1.09 1.14 1.17 1.16 1.09 1.04 1.00 0.95 0.86 0.80 0.82 0.84
0.22 0.42 0.78 1.24 0.99 0.51 0.34 0.31 0.34 0.41 0.72 1.03 1.33 1.93 2.23 2.37 2.40 2.43 2.39 2.37 2.30 2.08 1.77 1.60 1.50 1.31 1.21 1.12 1.09 1.03 0.98 0.97 0.96 1.02 1.12 1.15 1.09 1.01 0.93 0.90 0.90 0.83 0.80 0.77
0.27 0.51 0.55 0.58 0.49 0.38 0.36 0.35 0.41 0.49 0.61 0.95 1.24 1.75 2.18 2.36 2.48 2.36 2.40 2.31 1.97 1.74 1.61 1.53 1.47 1.41 1.26 1.13 1.03 0.92 0.89 0.89 0.85 0.93 0.98 0.95 0.91 0.92 0.85 0.81 0.85 0.80 0.76 0.72
0.32 0.58 0.54 0.51 0.43 0.46 0.53 0.53 0.56 0.56 0.66 0.90 1.25 1.82 2.12 2.34 2.44 2.33 2.32 2.16 2.01 1.91 1.79 1.69 1.65 1.56 1.39 1.18 1.08 1.00 0.96 0.93 0.88 0.90 0.90 0.82 0.76 0.76 0.72 0.72 0.68 0.65 0.67 0.72
0.39 0.62 0.75 0.68 0.44 0.66 1.09 0.86 0.75 0.85 0.86 1.13 1.53 1.79 1.76 1.86 1.98 2.08 2.13 2.12 2.04 1.96 1.90 1.86 1.83 1.76 1.59 1.40 1.30 1.20 1.10 0.96 0.90 0.88 0.83 0.79 0.77 0.75 0.70 0.67 0.66 0.65 0.66 0.70
0.40 0.66 0.75 0.79 0.91 1.55 1.49 0.94 0.83 0.94 1.07 1.05 1.21 1.33 1.39 1.44 1.59 1.70 1.78 1.99 2.09 2.03 1.96 1.91 1.82 1.73 1.64 1.52 1.35 1.18 1.01 0.91 0.88 0.87 0.80 0.74 0.74 0.75 0.73 0.75 0.78 0.75 0.71 0.74
0.30 0.57 0.83 1.02 1.37 1.64 1.51 1.02 0.92 1.25 1.54 1.15 1.07 1.08 1.09 1.14 1.34 1.64 1.75 1.92 2.10 2.02 1.94 1.88 1.76 1.67 1.60 1.43 1.25 1.10 1.02 0.92 0.88 0.82 0.73 0.67 0.64 0.69 0.69 0.71 0.74 0.75 0.76 0.78
0.26 0.46 0.88 1.18 1.64 1.95 1.78 0.89 0.63 1.14 2.00 1.27 1.02 1.07 1.19 1.35 1.69 1.69 1.52 1.55 1.73 1.82 1.92 1.91 1.70 1.53 1.42 1.21 1.03 0.97 0.96 0.88 0.82 0.71 0.63 0.58 0.60 0.64 0.64 0.65 0.69 0.73 0.76 0.77
0.61 0.73 0.97 1.28 1.72 1.82 1.10 0.61 0.77 1.76 2.01 1.38 1.20 1.23 1.35 1.55 1.63 1.37 1.19 1.24 1.38 1.55 1.66 1.61 1.50 1.40 1.19 1.00 0.93 0.97 0.88 0.77 0.65 0.57 0.58 0.62 0.65 0.68 0.64 0.68 0.73 0.74 0.72 0.76
0.84 1.12 1.26 1.45 1.81 1.84 0.81 0.63 1.14 1.42 1.10 1.00 0.97 0.97 1.11 1.10 1.00 0.96 1.02 1.15 1.28 1.41 1.42 1.35 1.32 1.24 1.11 0.99 0.98 1.05 0.95 0.74 0.61 0.60 0.62 0.64 0.67 0.56 0.53 0.68 0.71 0.67 0.73 0.77
0.74 0.99 1.21 1.45 1.65 1.32 0.77 0.71 0.78 0.82 0.87 0.83 0.85 0.81 0.89 0.93 0.91 0.92 0.95 1.09 1.19 1.24 1.22 1.12 1.05 1.07 1.07 1.04 1.03 1.05 0.95 0.76 0.69 0.75 0.75 0.68 0.66 0.64 0.67 0.70 0.66 0.64 0.66 0.62
0.72 0.60 0.82 1.09 1.03 0.85 0.71 0.66 0.59 0.57 0.66 0.66 0.68 0.71 0.84 0.97 0.97 0.99 0.94 0.97 1.05 1.05 1.03 0.99 0.97 1.00 0.99 0.94 0.85 0.88 0.80 0.74 0.80 0.83 0.76 0.70 0.72 0.76 0.73 0.66 0.54 0.52 0.48 0.45
0.76 0.87 1.16 1.37 1.11 0.96 0.85 0.69 0.57 0.51 0.49 0.52 0.58 0.64 0.75 0.89 0.92 0.89 0.91 0.91 0.87 0.83 0.83 0.85 0.89 0.86 0.79 0.74 0.68 0.68 0.67 0.69 0.83 0.86 0.78 0.71 0.64 0.64 0.65 0.51 0.38 0.37 0.35 0.32
0.66 1.05 1.58 1.44 1.14 1.21 1.03 0.77 0.62 0.59 0.64 0.64 0.58 0.54 0.59 0.68 0.72 0.76 0.81 0.76 0.71 0.68 0.69 0.72 0.75 0.71 0.69 0.66 0.63 0.64 0.60 0.58 0.74 0.79 0.73 0.62 0.51 0.47 0.42 0.38 0.36 0.30 0.26 0.27